{"data":{"norad_id":65575,"intl_designator":"2025-203L","name":"PRAETORIAN SDA_612","alt_names":[],"object_type":"PAYLOAD","status":"ACTIVE","operator":null,"country":"US","launch_date":"2025-09-10","launch_site_code":"AFWTR","launch_vehicle":null,"mission":null,"orbit_class":"UNKNOWN","rcs_meters":null,"size_class":null,"mass_kg":null,"dimensions":null,"purposes":["military"],"wikipedia_slug":null,"has_3d_model":false,"image_url":null,"decayed_at":null,"tle_current":{"epoch":"2026-09-19T07:38:54.048768Z","epoch_age_seconds":116510,"freshness":"FRESH","line1":"1 65575U 25203L   26262.31868112  .00000113  00000+0  89094-4 0  9996","line2":"2 65575  81.2993 283.2213 0008228 300.1728  59.8614 13.85039325 51743","mean_motion":13.85039325,"eccentricity":0.0008228,"inclination_deg":81.2993,"raan_deg":283.2213,"arg_perigee_deg":300.1728,"mean_anomaly_deg":59.8614,"bstar":8.9094e-5,"rev_number":5174,"period_min":103.96816711323,"perigee_km":940.04075063754,"apogee_km":952.093460914,"semimajor_km":7324.2041057758,"source":"CELESTRAK","updated_at":"2026-09-20T09:00:47.716465Z"}}}